Regional Weather Roundup
Issued by NWS Newport/Morehead, NC

Current Version | Previous Version | Text Only | Print | Product List | Glossary On
Versions: 1 2 3 4 5 6 7 8 9 10 11 12 13 14 15 16 17 18 19 20 21 22 23 24 25 26 27 28 29 30 31 32 33 34 35 36 37 38 39 40 41 42 43 44 45 46 47 48 49 50
000 ASUS42 KMHX 230013 RWRMHX WEATHER ROUNDUP FOR EASTERN NORTH CAROLINA NATIONAL WEATHER SERVICE NEWPORT/MOREHEAD CITY NC 700 PM EST WED FEB 22 2017 NOTE: "FAIR" INDICATES FEW OR NO CLOUDS BELOW 12,000 FEET WITH NO SIGNIFICANT WEATHER AND/OR OBSTRUCTIONS TO VISIBILITY NCZ015>017-031-032-045>047-102-103-230100- NORTH COAST CITY SKY/WX TMP DP RH WIND PRES REMARKS EDENTON CLOUDY 63 52 67 E3 29.96S ELIZABETH CITY CLOUDY 57 51 80 E6 29.96S KITTY HAWK NOT AVBL MANTEO CLOUDY 59 49 69 SE7 29.98R $$ NCZ045>047-081-094-103-104-230100- CENTRAL COAST CITY SKY/WX TMP DP RH WIND PRES REMARKS FRISCO MOCLDY 66 54 65 S6 29.97S $$ NCZ095-097-098-100-101-230100- SOUTHERN COAST CITY SKY/WX TMP DP RH WIND PRES REMARKS BEAUFORT PTCLDY 59 51 75 CALM 29.96R CEDAR ISLAND NOT AVBL JACKSONVILLE PTCLDY 62 55 77 SE3 29.95R PINEY ISLAND MOCLDY N/A N/A N/A CALM 29.96R WILMINGTON CLOUDY 65 54 67 SE3 29.94S $$ NCZ011>013-027>030-043-044-078>080-089-090>093-098-230100- COASTAL PLAIN CITY SKY/WX TMP DP RH WIND PRES REMARKS AHOSKIE NOT AVBL CLINTON CLOUDY 65 55 70 CALM 29.94R ELIZABETHTOWN MOCLDY 65 55 69 SE5 29.94R GOLDSBORO MOCLDY 66 56 68 SE3 29.92R GREENVILLE CLOUDY 66 54 63 S6 29.96S HAVELOCK NOT AVBL KENANSVILLE NOT AVBL KINSTON MOCLDY 64 54 68 S6 29.96R NEW BERN CLOUDY 59 53 80 CALM 29.97R RICHLANDS CLOUDY 60 54 80 CALM 29.96R ROCKY MOUNT PTCLDY 63 51 65 NE3 29.94S WASHINGTON CLOUDY 63 53 69 SE5 29.95S WHITEVILLE MOCLDY 65 54 66 CALM 29.93S $$ AMZ130-135-150-152-154-156-158-170-250-252-270-ANZ085-086-088-633-658-670-230100- MARINE OBSERVATIONS STATION/POSITION TIME TEMP WIND PRES WAVE SWELL AIR SEA DIR/SP/G HT/PER HT/PER (UTC) (F) (DEG/KT/KT) (MB) (FT/S) (FT/S) CHESAPEAKE LIGHT NOT AVBL 64 E VA BEACH 2350 58 55 170/ 6/ 6 1014.9 3/11 3/11 DUCK 2336 53 48 140/ 9/ 9 1014.3 2 E DUCK 2330 51 N/A 3/ 9 2/11 OREGON INLET 2348 110/ 5/ 8 N/A 13E OREGON INLT NOT AVBL HATTERAS CG 2348 66 60 140/ 2/ 4 1014.6 DIAMOND BUOY 2350 68 75 150/ 8/ 12 1015.1 3/ 9 3/ 9 CAPE LOOKOUT 0000 65 150/ 6/ 6 1014.3 BEAUFORT LAB 2348 61 54 CALM 1013.7 30 SE NEW RVR IN 2308 68 150/ 8/ 12 1014.0 30 SE NEW RVR IN 2343 69 N/A 4/ 9 2/11 27 SE WRIGHTSVLE 2308 67 65 CALM 1013.3 5 SE WRIGHTSVLE 2308 61 58 110/ 4/ 6 1013.7 225 S CAPE HAT 2350 66 70 110/ 16/ 17 1014.5 5/11 5/11 41 SE CHARLESTON 2350 69 70 110/ 17/ 21 1010.9 6/ 7 2/10 $$

USA.gov is the U.S. government's official web portal to all federal, state and local government web resources and services.